[[{"header":{"parameterUnit":"m.s-1","parameterCategory":1,"la1":30.2991,"la2":30.254,"lo1":-89.0895,"lo2":-89.0444,"dy":0.0017,"dx":0.0017,"nx":28,"ny":28,"refTime":"2023-08-14T09:00:00:Z","depth":0,"parameterNumber":2,"parameterNumberName":"U-component_of_WINDS"},"data":[0,0,0,0,0,0,0,0,0,0,0,0,0,0,0,0,0,0,0,0,0,0,0,0,0,0,0,0,0,0,0,0,0,0,0,0,0,0,0,0,0,0,0,0,0,0,0,0,0,0,0,0,0,0,0,0,0,0,2.6627,2.6628,0,2.6692,2.6693,2.6694,2.6656,2.6655,2.6653,2.6651,2.6719,2.6723,2.6726,0,0,0,0,0,0,0,0,0,0,0,0,0,2.6468,2.6472,2.6627,2.6628,2.6629,2.6692,2.6693,2.6694,2.6657,2.6654,2.6652,2.665,2.6718,2.6722,2.6726,0,0,0,0,0,0,0,0,0,0,0,0,0,2.6536,2.6473,2.6627,2.6618,2.6617,2.6692,2.6693,2.6694,2.6657,2.6654,2.6652,2.6649,2.6717,2.6722,2.6727,2.6815,0,0,2.6743,2.6745,0,0,0,0,0,0,0,0,2.6532,2.6542,2.6618,2.6618,2.6618,2.6663,2.6662,2.6735,2.6658,2.6642,2.6651,2.6648,2.6703,2.6709,2.6727,2.6818,2.6821,2.6744,2.6747,2.6749,2.6751,0,0,0,0,0,0,0,2.6528,2.6539,2.6653,2.6619,2.6619,2.661,2.6616,2.6676,2.6687,2.6643,2.6641,2.6649,2.6702,2.6722,2.6729,2.6822,2.6743,2.6748,2.6751,2.6753,2.6984,2.6986,0,0,0,0,0,0,2.6524,2.6535,2.6651,2.6655,2.6568,2.6615,2.6622,2.6652,2.6686,2.6689,2.6651,2.6647,2.6715,2.6723,2.6731,2.6833,2.6749,2.6754,2.6757,2.6981,2.6984,2.6987,0,0,0,0,0,0,2.652,2.6534,2.6648,2.6594,2.6608,2.662,2.6654,2.6654,2.6674,2.6692,2.6694,2.667,2.6713,2.6724,2.6793,2.6835,2.6756,2.6761,2.6977,2.6982,2.6986,2.704,0,0,0,0,0,0,2.6516,2.6533,2.6567,2.6595,2.6611,2.671,2.6657,2.6658,2.6683,2.6679,2.671,2.6713,2.6712,2.6785,2.6798,2.6841,2.6765,2.6973,2.6979,2.6984,2.7035,2.7046,2.7056,0,0,0,0,0,2.651,2.6581,2.6569,2.6583,2.6654,2.6712,2.6721,2.6718,2.6687,2.6721,2.6732,2.6712,2.6829,2.6793,2.6807,2.6852,2.6971,2.6978,2.6984,2.703,2.7044,2.7056,0,0,0,0,0,0,2.6559,2.6585,2.6572,2.6654,2.6681,2.6706,2.6749,2.6733,2.677,2.6764,2.6759,2.6766,2.6838,2.6852,2.6812,2.6937,2.6895,2.6905,2.6925,2.6938,2.6948,2.6943,2.677,0,0,0,0,0,2.6579,2.6625,2.6645,2.6715,2.6729,2.6737,2.6762,2.6757,2.6785,2.6796,2.6813,2.6841,2.6883,2.6912,2.6952,2.7037,2.7042,2.7074,2.7085,2.7093,2.7102,2.7144,2.7158,2.7009,2.7009,2.7009,0,0,2.6622,2.6641,2.6671,2.6725,2.6746,2.6792,2.6747,2.6798,2.6832,2.6805,2.687,2.6883,2.6914,2.699,2.7025,2.7004,2.7144,2.7102,2.7108,2.7112,2.7152,2.7166,2.7179,2.7014,2.7013,2.7012,0,0,2.6722,2.6743,2.6802,2.6822,2.6853,2.6857,2.6871,2.6898,2.6905,2.697,2.695,2.699,2.7064,2.7086,2.7107,2.7212,2.7194,2.7225,2.728,2.7321,2.7333,2.7343,2.7378,2.7391,2.7234,2.7234,2.7234,0,2.6771,2.684,2.6835,2.6887,2.691,2.6886,2.6944,2.6965,2.7008,2.7024,2.7001,2.7091,2.7111,2.719,2.7215,2.7234,2.7248,2.7221,2.7331,2.7342,2.7351,2.7385,2.7398,2.7237,2.7237,2.7236,2.7236,0,2.6897,2.6945,2.6989,2.7029,2.7058,2.7114,2.7115,2.7145,2.7136,2.7142,2.7208,2.723,2.7273,2.7291,2.7285,2.7369,2.7355,2.7332,2.7289,2.7369,2.74,2.7413,2.7242,2.7241,2.724,2.7239,0,0,2.7032,2.7066,2.7082,2.7098,2.7129,2.7165,2.7219,2.726,2.7284,2.7314,2.7357,2.7419,2.7396,2.742,2.7415,2.7452,2.753,2.7423,2.7424,2.744,2.7621,2.7637,2.7652,2.7518,2.7521,2.7523,2.7618,0,2.7132,2.7225,2.722,2.7306,2.7349,2.7325,2.7371,2.7394,2.74,2.7437,2.7444,2.7487,2.7455,2.7469,2.7504,2.7513,2.7566,2.7506,2.7557,2.7559,2.7549,2.7669,2.7687,2.7776,2.763,2.7632,2.7634,0,2.7263,2.7294,2.7385,2.7406,2.7423,2.7465,2.75,2.7536,2.7561,2.7563,2.7587,2.7576,2.7628,2.7584,2.7655,2.7615,2.7635,2.7643,2.7646,2.765,2.76,2.7674,2.7805,2.7817,2.7653,2.7652,2.765,0,2.7349,2.7414,2.7476,2.7491,2.7518,2.7547,2.7559,2.7582,2.7605,2.7636,2.7651,2.7688,2.7708,2.7737,2.7735,2.7704,2.7806,2.7763,2.7808,2.7808,2.783,2.7828,2.7964,2.7846,2.7846,2.7845,2.7845,0,2.7461,2.7516,2.7514,2.7552,2.7613,2.7606,2.7666,2.7675,2.7694,2.7733,2.7715,2.7751,2.7747,2.7783,2.7782,2.784,2.785,2.7851,2.785,2.7852,2.7852,2.7865,2.7858,2.7849,2.7848,2.7848,2.7847,0,2.7567,2.7568,2.7633,2.7652,2.7658,2.7702,2.7717,2.7752,2.7756,2.7805,2.7816,2.7822,2.7863,2.7864,2.7912,2.7911,2.798,2.7973,2.7972,2.797,2.8014,2.8009,2.8161,2.8179,2.8051,2.8053,2.8054,0,2.7638,2.7679,2.7702,2.7725,2.7739,2.7778,2.7802,2.7796,2.7821,2.785,2.7881,2.792,2.7951,2.8018,2.8027,2.8063,2.8055,2.8106,2.8061,2.806,2.8053,2.805,2.8053,2.8115,2.8116,2.8117,2.8118,0,2.7762,2.776,2.7794,2.7827,2.7855,2.7882,2.7906,2.7927,2.7923,2.7952,2.7993,2.8017,2.8064,2.8103,2.8137,2.8149,2.8133,2.8132,2.8144,2.8146,2.8142,2.8142,2.7994,2.8129,2.8128,2.8127,2.8126,2.8126,2.7851,2.7886,2.7906,2.7944,2.7961,2.7983,2.8016,2.8023,2.8057,2.8094,2.8088,2.8134,2.8155,2.8198,2.8213,2.8248,2.8231,2.8248,2.8253,2.8257,2.826,2.8138,2.8255,2.8254,2.8254,2.8254,2.8254,0,2.7973,2.7984,2.8019,2.8052,2.8081,2.8062,2.8087,2.8112,2.8152,2.8173,2.8203,2.8248,2.8285,2.8295,2.833,2.8356,2.8349,2.8365,2.8362,2.8365,2.8275,2.826,2.837,2.837,2.837,2.837,2.837,2.837,2.8039,2.8096,2.8095,2.8159,2.817,2.8213,2.8229,2.8249,2.8265,2.8316,2.8346,2.8352,2.8368,2.8403,2.8435,2.8437,2.845,2.8469,2.8468,2.8383,2.8372,2.8361,2.8346,2.8472,2.8472,2.8554,2.8555,2.8555]},{"header":{"parameterUnit":"m.s-1","parameterCategory":1,"la1":30.2991,"la2":30.254,"lo1":-89.0895,"lo2":-89.0444,"dy":0.0017,"dx":0.0017,"nx":28,"ny":28,"refTime":"2023-08-14T09:00:00:Z","depth":0,"parameterNumber":3,"parameterNumberName":"V-component_of_WINDS"},"data":[0,0,0,0,0,0,0,0,0,0,0,0,0,0,0,0,0,0,0,0,0,0,0,0,0,0,0,0,0,0,0,0,0,0,0,0,0,0,0,0,0,0,0,0,0,0,0,0,0,0,0,0,0,0,0,0,0,0,5.8846,5.8847,0,5.8926,5.8927,5.8928,5.8876,5.8874,5.8872,5.8869,5.8942,5.8946,5.895,0,0,0,0,0,0,0,0,0,0,0,0,0,5.8642,5.8646,5.8846,5.8847,5.8848,5.8926,5.8927,5.8928,5.8877,5.8874,5.8871,5.8868,5.8941,5.8946,5.8951,0,0,0,0,0,0,0,0,0,0,0,0,0,5.8727,5.8647,5.8846,5.8832,5.8832,5.8926,5.8927,5.8928,5.8877,5.8874,5.887,5.8867,5.8939,5.8945,5.8951,5.906,0,0,5.897,5.8973,0,0,0,0,0,0,0,0,5.8722,5.8734,5.8833,5.8834,5.8833,5.8888,5.8881,5.8972,5.8878,5.886,5.8869,5.8865,5.8926,5.8933,5.8956,5.9064,5.9067,5.8971,5.8975,5.8977,5.8979,0,0,0,0,0,0,0,5.8716,5.873,5.8877,5.8835,5.8835,5.8819,5.8828,5.8898,5.8912,5.8861,5.8858,5.8868,5.8926,5.895,5.8957,5.9068,5.8971,5.8976,5.898,5.8982,5.9268,5.9272,0,0,0,0,0,0,5.8712,5.8726,5.8875,5.888,5.8768,5.8826,5.8835,5.8874,5.8911,5.8913,5.8871,5.8865,5.8941,5.895,5.8959,5.9089,5.8977,5.8983,5.8987,5.9264,5.9269,5.9273,0,0,0,0,0,0,5.8708,5.8726,5.8872,5.8802,5.8819,5.8833,5.8877,5.8877,5.8901,5.8919,5.892,5.8894,5.8939,5.8951,5.9036,5.909,5.8986,5.8992,5.926,5.9266,5.9271,5.9348,0,0,0,0,0,0,5.8703,5.8725,5.8769,5.8804,5.8823,5.895,5.888,5.8881,5.8913,5.8907,5.894,5.8942,5.8937,5.9027,5.9042,5.9097,5.8996,5.9255,5.9262,5.9269,5.9341,5.9356,5.9369,0,0,0,0,0,5.8696,5.8786,5.8771,5.8789,5.8879,5.8953,5.8964,5.8958,5.8918,5.896,5.8971,5.8941,5.9083,5.9036,5.9053,5.911,5.9251,5.926,5.9269,5.9335,5.9353,5.9369,0,0,0,0,0,0,5.8753,5.879,5.8774,5.8879,5.8914,5.8944,5.8998,5.8978,5.9022,5.9014,5.9002,5.901,5.9099,5.9113,5.9061,5.9217,5.916,5.9173,5.9205,5.9222,5.9236,5.923,5.9002,0,0,0,0,0,5.8779,5.8839,5.8867,5.8956,5.8975,5.8984,5.9016,5.9009,5.9043,5.9056,5.9073,5.9105,5.9156,5.919,5.9239,5.9343,5.9349,5.9391,5.9405,5.9416,5.9427,5.9481,5.95,5.9302,5.9301,5.9301,0,0,5.8831,5.8858,5.8897,5.8969,5.8995,5.9054,5.8996,5.9062,5.9105,5.9065,5.9147,5.9161,5.9196,5.9291,5.9334,5.9305,5.9483,5.9427,5.9437,5.944,5.9492,5.9511,5.9528,5.9307,5.9306,5.9305,0,0,5.8956,5.8985,5.9062,5.909,5.9131,5.9137,5.9155,5.919,5.9198,5.9281,5.9252,5.9302,5.9391,5.9417,5.9442,5.9578,5.9551,5.9594,5.9666,5.972,5.9736,5.9749,5.9796,5.9814,5.9604,5.9605,5.9605,0,5.9015,5.9107,5.9103,5.9172,5.9203,5.9173,5.925,5.9276,5.933,5.9351,5.932,5.9431,5.9452,5.9553,5.9586,5.9608,5.9626,5.9589,5.9734,5.9748,5.9761,5.9805,5.9823,5.9609,5.9609,5.9608,5.9608,0,5.9176,5.924,5.9297,5.9354,5.9391,5.9464,5.9468,5.9506,5.9496,5.9504,5.9588,5.9613,5.9665,5.9689,5.9678,5.9788,5.9769,5.9736,5.9678,5.9785,5.9826,5.9843,5.9616,5.9615,5.9613,5.9612,0,0,5.9338,5.9393,5.9414,5.9439,5.9483,5.953,5.96,5.9655,5.9687,5.9725,5.9782,5.9859,5.9829,5.9858,5.985,5.9897,6.0002,5.9858,5.9859,5.9883,6.0121,6.0144,6.0165,5.9985,5.9989,5.9991,6.0118,0,5.9465,5.9591,5.9589,5.9704,5.9762,5.9735,5.9795,5.9827,5.9837,5.9885,5.9894,5.9949,5.9906,5.9923,5.9969,5.9979,6.0049,5.997,6.0035,6.0037,6.0026,6.0187,6.0211,6.0329,6.0134,6.0137,6.0139,0,5.9629,5.9676,5.9798,5.9833,5.9858,5.9913,5.9962,6.001,6.0045,6.0048,6.0081,6.0065,6.0134,6.0076,6.0168,6.0115,6.0141,6.015,6.0155,6.0159,6.0093,6.0193,6.0367,6.0384,6.0165,6.0163,6.0161,0,5.9733,5.9826,5.9911,5.9933,5.9978,6.0017,6.0036,6.0068,6.0101,6.0143,6.0164,6.0213,6.0239,6.0276,6.0273,6.0232,6.0367,6.0309,6.0369,6.0369,6.0397,6.0395,6.0576,6.0417,6.0417,6.0417,6.0416,0,5.9873,5.9948,5.9959,6.001,6.0093,6.009,6.0171,6.0186,6.0215,6.0267,6.0246,6.0295,6.029,6.0338,6.0336,6.0412,6.0425,6.0427,6.0425,6.0428,6.0428,6.0444,6.0435,6.0421,6.042,6.042,6.0419,0,6.0002,6.0013,6.0103,6.0139,6.0149,6.0208,6.0237,6.0285,6.0293,6.036,6.0375,6.0387,6.0443,6.0445,6.0509,6.0507,6.06,6.059,6.0589,6.0586,6.0646,6.0639,6.0842,6.0867,6.0694,6.0696,6.0697,0,6.009,6.0148,6.019,6.0226,6.0248,6.0305,6.0339,6.0338,6.0374,6.0419,6.0461,6.0516,6.0559,6.065,6.0662,6.0711,6.07,6.0768,6.0707,6.0708,6.0699,6.0695,6.07,6.0779,6.0781,6.0782,6.0784,0,6.0244,6.0247,6.0299,6.0353,6.0395,6.0437,6.0475,6.0504,6.0507,6.0548,6.0607,6.0641,6.0708,6.0761,6.0809,6.0825,6.0804,6.0803,6.0819,6.0822,6.0818,6.0819,6.0619,6.0798,6.0796,6.0795,6.0795,6.0794,6.0354,6.0404,6.0442,6.05,6.053,6.0567,6.0614,6.0629,6.0679,6.0735,6.0731,6.0796,6.0828,6.089,6.0911,6.096,6.0936,6.096,6.0966,6.0971,6.0977,6.0813,6.0969,6.0968,6.0968,6.0968,6.0967,0,6.0505,6.053,6.0583,6.064,6.0685,6.0665,6.0707,6.0745,6.0803,6.0837,6.0882,6.0949,6.1001,6.1019,6.1069,6.1104,6.1096,6.1117,6.1113,6.1117,6.0996,6.0976,6.1123,6.1123,6.1123,6.1123,6.1123,6.1123,6.059,6.0672,6.068,6.0777,6.0799,6.0865,6.089,6.0923,6.095,6.1027,6.1072,6.1084,6.1111,6.1163,6.121,6.1213,6.1232,6.1257,6.1256,6.1142,6.1126,6.1111,6.1092,6.1261,6.1262,6.1373,6.1374,6.1375]}]]